Flag for United Kingdom Weather past 2 weeks in Londonderry, Northern Ireland, United Kingdom

Now
57 °F

Scattered clouds.


Feels Like: 54 °F
Forecast: 48 / 59 °F
Wind: 15 mph from Northwest

Location: Eglinton / Londonderry

Current Time: Jul 29, 2015 at 5:51:05 PM

Latest Report: Jul 29, 2015 at 4:50 PM


Visibility: N/A

Pressure: 30.01 "Hg

Humidity: 77%

Dew point: 50 °F

Location of LondonderryLocation

Historic Weather in Londonderry — Graph

°F

Londonderry temperature yesterday

Maximum temperature yesterday: 61 °F (at 2:20 PM)
Minimum temperature yesterday: 52 °F (at 6:20 AM)
Average temperature yesterday: 56 °F

Past Weeks' High & Low Weather Summary

 TemperatureHumidityPressure
High66 °F (Jul 20, 4:20 PM)100% (Jul 27, 6:50 AM)30.15 "Hg (Jul 27, 6:50 AM)
Low48 °F (Jul 15, 6:20 AM)49% (Jul 23, 2:20 PM)29.36 "Hg (Jul 26, 5:20 PM)
Average58 °F77%29.78 "Hg
* Reported Jul 14 4:20 PM — Jul 29 4:20 PM, Londonderry, Weather by CustomWeather, © 2015

Note: Actual official high and low records may vary slightly from our data, if they occured in-between our weather recording intervals... More about our weather records

Advertising

Londonderry weather history for previous 24 hours

 ConditionsComfort  
Time TempWeatherWind HumidityBarometerVisibility
4:20 PM
Wed, Jul 29
57 °FScattered clouds.16 mph67%29.98 "HgN/A
3:50 PM57 °FPartly sunny.16 mph67%29.98 "HgN/A
3:20 PM55 °FPartly sunny.16 mph77%29.98 "HgN/A
2:50 PM59 °FPartly sunny.18 mph68%29.98 "HgN/A
2:20 PM59 °FScattered clouds.18 mph68%29.98 "HgN/A
1:50 PM59 °FScattered clouds.17 mph68%29.98 "HgN/A
1:20 PM59 °FPartly sunny.17 mph68%29.95 "HgN/A
12:50 PM57 °FPartly sunny.17 mph72%29.95 "HgN/A
12:20 PM57 °FBroken clouds.13 mph77%29.95 "HgN/A
11:50 AM57 °FPartly sunny.17 mph77%29.92 "HgN/A
11:20 AM57 °FScattered showers. Partly sunny.15 mph77%29.92 "HgN/A
10:50 AM57 °FScattered showers. Scattered clouds.15 mph77%29.92 "HgN/A
10:20 AM57 °FScattered showers. Scattered clouds.17 mph82%29.92 "HgN/A
9:50 AM57 °FScattered showers. Scattered clouds.15 mph82%29.92 "HgN/A
9:20 AM57 °FSprinkles. Scattered clouds.15 mph77%29.89 "HgN/A
8:50 AM54 °FScattered clouds.12 mph88%29.89 "HgN/A
8:20 AM55 °FScattered clouds.13 mph88%29.89 "HgN/A
7:50 AM54 °FScattered clouds.8 mph88%29.89 "HgN/A
7:20 AM54 °FSprinkles. Broken clouds.9 mph88%29.89 "HgN/A
6:50 AM54 °FBroken clouds.9 mph88%29.86 "HgN/A
6:20 AM52 °FPassing clouds.9 mph88%29.86 "HgN/A
5:20 PM
Tue, Jul 28
55 °FRain showers. Broken clouds.14 mph82%29.65 "HgN/A
Weather by CustomWeather, © 2015

See weather overviewHow to use our weather pages